Charles City, IA

7:22 PM CDT on June 28, 2017 (GMT -0500)
Charles City Municipal

Weather History for KCCY - March, 2013

Change the Weather History Date:

Monday, March 25, 2013

  Actual Average Record
Temperature  
Mean Temperature 28 °F -  
Max Temperature 32 °F 48 °F 77 °F (2007)
Min Temperature 23 °F 28 °F 7 °F (1960)
Degree Days  
Heating Degree Days 38    
Moisture  
Dew Point 21 °F    
Average Humidity 73    
Maximum Humidity 80    
Minimum Humidity 64    
Precipitation  
Precipitation 0.00 in - - ()
Sea Level Pressure  
Sea Level Pressure 30.06 in    
Wind  
Wind Speed 17 mph (NNW)    
Max Wind Speed 23 mph    
Max Gust Speed 28 mph    
Visibility 10 miles    
Events      
Averages and records for this station are not official NWS values.
T = Trace of Precipitation, MM = Missing Value Source: NWS Daily Summary

Daily Weather History Graph

Daily Weather History Graph

Search for Another Location

Airport or City:

Trip Planner

Search our weather history database for the weather conditions in past years. The results will help you decide how hot, cold, wet, or windy it might be!

Date:

Astronomy

Mar. 25, 2013 Rise Set
Actual Time 7:04 AM CDT 7:28 PM CDT
Civil Twilight 6:35 AM CDT 7:57 PM CDT
Nautical Twilight 6:02 AM CDT 8:31 PM CDT
Astronomical Twilight 5:28 AM CDT 9:05 PM CDT
Moon 5:59 PM CDT (3/25) 5:50 AM CDT (3/25)
Length of Visible Light 13h 21m
Length of Day
12h 24m
Waxing Gibbous, 96% of the Moon is Illuminated
Mar 25
Waxing Gibbous
Mar 27
Full
Apr 2
Last Quarter
Apr 10
New
Apr 18
First Quarter

Hourly Weather History & Observations

Time (CDT) Temp. Windchill Dew Point Humidity Pressure Visibility Wind Dir Wind Speed Gust Speed Precip Events Conditions
12:15 AM 30.2 °F 18.1 °F 23.0 °F 75% 29.93 in 10.0 mi North 18.4 mph - N/A   Overcast
12:35 AM 30.2 °F 17.8 °F 23.0 °F 75% 29.93 in 10.0 mi North 19.6 mph - N/A   Overcast
12:55 AM 30.2 °F 18.1 °F 23.0 °F 75% 29.93 in 10.0 mi North 18.4 mph 24.2 mph N/A   Overcast
1:15 AM 28.4 °F 16.6 °F 23.0 °F 80% 29.93 in 10.0 mi North 16.1 mph 24.2 mph N/A   Overcast
1:55 AM 28.4 °F 15.1 °F 23.0 °F 80% 29.93 in 10.0 mi North 20.7 mph - N/A   Overcast
2:15 AM 28.4 °F 15.8 °F 23.0 °F 80% 29.94 in 10.0 mi North 18.4 mph 26.5 mph N/A   Overcast
2:35 AM 28.4 °F 16.6 °F 23.0 °F 80% 29.95 in 10.0 mi North 16.1 mph - N/A   Overcast
2:55 AM 28.4 °F 16.6 °F 21.2 °F 74% 29.95 in 10.0 mi North 16.1 mph 23.0 mph N/A   Overcast
3:15 AM 28.4 °F 15.8 °F 21.2 °F 74% 29.95 in 10.0 mi North 18.4 mph - N/A   Overcast
3:35 AM 26.6 °F 14.3 °F 21.2 °F 80% 29.95 in 10.0 mi North 16.1 mph - N/A   Overcast
3:55 AM 26.6 °F 13.4 °F 19.4 °F 74% 29.95 in 10.0 mi North 18.4 mph - N/A   Overcast
4:15 AM 26.6 °F 14.3 °F 19.4 °F 74% 29.95 in 10.0 mi North 16.1 mph 21.9 mph N/A   Overcast
4:35 AM 26.6 °F 13.1 °F 19.4 °F 74% 29.94 in 10.0 mi North 19.6 mph - N/A   Overcast
4:55 AM 26.6 °F 13.1 °F 17.6 °F 69% 29.95 in 10.0 mi North 19.6 mph - N/A   Overcast
5:15 AM 26.6 °F 14.7 °F 17.6 °F 69% 29.95 in 10.0 mi North 15.0 mph 21.9 mph N/A   Overcast
5:35 AM 26.6 °F 14.7 °F 17.6 °F 69% 29.95 in 10.0 mi North 15.0 mph - N/A   Overcast
5:55 AM 26.6 °F 15.2 °F 17.6 °F 69% 29.96 in 10.0 mi North 13.8 mph - N/A   Overcast
6:15 AM 26.6 °F 14.7 °F 17.6 °F 69% 29.97 in 10.0 mi North 15.0 mph - N/A   Overcast
6:35 AM 24.8 °F 12.4 °F 17.6 °F 74% 29.97 in 10.0 mi North 15.0 mph - N/A   Mostly Cloudy
6:55 AM 24.8 °F 12.4 °F 17.6 °F 74% 29.98 in 10.0 mi North 15.0 mph - N/A   Scattered Clouds
7:15 AM 23.0 °F 9.6 °F 17.6 °F 80% 29.99 in 10.0 mi North 16.1 mph 25.3 mph N/A   Partly Cloudy
7:35 AM 23.0 °F 9.6 °F 17.6 °F 80% 30.00 in 10.0 mi North 16.1 mph 21.9 mph N/A   Partly Cloudy
7:55 AM 24.8 °F 11.5 °F 17.6 °F 74% 30.00 in 10.0 mi North 17.3 mph - N/A   Mostly Cloudy
8:15 AM 24.8 °F 11.5 °F 19.4 °F 80% 30.01 in 10.0 mi North 17.3 mph 24.2 mph N/A   Overcast
8:55 AM 24.8 °F 11.1 °F 19.4 °F 80% 30.03 in 10.0 mi North 18.4 mph - N/A   Scattered Clouds
9:15 AM 24.8 °F 10.3 °F 19.4 °F 80% 30.03 in 10.0 mi NNW 20.7 mph - N/A   Partly Cloudy
9:35 AM 26.6 °F 12.7 °F 19.4 °F 74% 30.04 in 10.0 mi North 20.7 mph - N/A   Clear
9:55 AM 26.6 °F 13.4 °F 19.4 °F 74% 30.05 in 10.0 mi North 18.4 mph 25.3 mph N/A   Clear
10:15 AM 26.6 °F 13.8 °F 19.4 °F 74% 30.05 in 10.0 mi North 17.3 mph - N/A   Clear
10:35 AM 28.4 °F 15.8 °F 19.4 °F 69% 30.06 in 10.0 mi North 18.4 mph - N/A   Clear
10:55 AM 28.4 °F 15.1 °F 19.4 °F 69% 30.06 in 10.0 mi North 20.7 mph - N/A   Clear
11:15 AM 28.4 °F 15.8 °F 21.2 °F 74% 30.07 in 10.0 mi North 18.4 mph - N/A   Clear
11:35 AM 28.4 °F 15.8 °F 21.2 °F 74% 30.07 in 10.0 mi North 18.4 mph - N/A   Mostly Cloudy
11:55 AM 30.2 °F 18.1 °F 21.2 °F 69% 30.07 in 10.0 mi North 18.4 mph - N/A   Scattered Clouds
12:15 PM 30.2 °F 18.5 °F 23.0 °F 75% 30.08 in 10.0 mi North 17.3 mph - N/A   Clear
12:35 PM 30.2 °F 19.3 °F 23.0 °F 75% 30.07 in 10.0 mi North 15.0 mph 21.9 mph N/A   Scattered Clouds
12:55 PM 30.2 °F 19.8 °F 23.0 °F 75% 30.07 in 10.0 mi NNW 13.8 mph 20.7 mph N/A   Scattered Clouds
1:15 PM 32.0 °F 20.5 °F 24.8 °F 75% 30.07 in 10.0 mi NNW 18.4 mph - N/A   Clear
1:35 PM 32.0 °F 20.5 °F 24.8 °F 75% 30.07 in 10.0 mi NNW 18.4 mph - N/A   Clear
1:55 PM 32.0 °F 19.5 °F 24.8 °F 75% 30.07 in 10.0 mi NNW 21.9 mph - N/A   Clear
2:15 PM 32.0 °F 19.8 °F 24.8 °F 75% 30.07 in 10.0 mi NNW 20.7 mph 26.5 mph N/A   Clear
2:35 PM 32.0 °F 19.5 °F 23.0 °F 69% 30.07 in 10.0 mi NNW 21.9 mph - N/A   Clear
2:55 PM 32.0 °F 19.5 °F 23.0 °F 69% 30.07 in 10.0 mi NNW 21.9 mph 27.6 mph N/A   Clear
3:15 PM 32.0 °F 19.2 °F 21.2 °F 64% 30.07 in 10.0 mi NNW 23.0 mph - N/A   Clear
3:35 PM 32.0 °F 20.5 °F 23.0 °F 69% 30.08 in 10.0 mi NNW 18.4 mph 27.6 mph N/A   Clear
3:55 PM 32.0 °F 20.1 °F 23.0 °F 69% 30.08 in 10.0 mi North 19.6 mph - N/A   Clear
4:15 PM 32.0 °F 19.5 °F 23.0 °F 69% 30.09 in 10.0 mi North 21.9 mph - N/A   Clear
4:35 PM 32.0 °F 20.8 °F 23.0 °F 69% 30.10 in 10.0 mi North 17.3 mph - N/A   Clear
4:55 PM 32.0 °F 20.5 °F 23.0 °F 69% 30.10 in 10.0 mi NNW 18.4 mph - N/A   Partly Cloudy
5:15 PM 32.0 °F 21.6 °F 23.0 °F 69% 30.11 in 10.0 mi NNW 15.0 mph 24.2 mph N/A   Partly Cloudy
5:35 PM 32.0 °F 20.5 °F 21.2 °F 64% 30.12 in 10.0 mi NNW 18.4 mph - N/A   Mostly Cloudy
5:55 PM 32.0 °F 21.2 °F 21.2 °F 64% 30.12 in 10.0 mi North 16.1 mph 21.9 mph N/A   Scattered Clouds
6:15 PM 32.0 °F 22.1 °F 23.0 °F 69% 30.12 in 10.0 mi NNW 13.8 mph 20.7 mph N/A   Partly Cloudy
6:35 PM 32.0 °F 22.5 °F 23.0 °F 69% 30.13 in 10.0 mi NNW 12.7 mph - N/A   Clear
6:55 PM 32.0 °F 23.6 °F 23.0 °F 69% 30.14 in 10.0 mi NNW 10.4 mph - N/A   Clear
7:15 PM 32.0 °F 23.6 °F 23.0 °F 69% 30.15 in 10.0 mi NW 10.4 mph - N/A   Clear
7:35 PM 32.0 °F 23.0 °F 23.0 °F 69% 30.15 in 10.0 mi NW 11.5 mph - N/A   Clear
7:55 PM 30.2 °F 21.9 °F 23.0 °F 75% 30.16 in 10.0 mi NW 9.2 mph - N/A   Clear
8:15 PM 30.2 °F 21.9 °F 23.0 °F 75% 30.16 in 10.0 mi NW 9.2 mph - N/A   Clear
8:35 PM 30.2 °F 21.3 °F 23.0 °F 75% 30.16 in 10.0 mi NW 10.4 mph - N/A   Clear
8:55 PM 30.2 °F 21.3 °F 23.0 °F 75% 30.17 in 10.0 mi NW 10.4 mph - N/A   Clear
9:15 PM 30.2 °F 20.8 °F 23.0 °F 75% 30.17 in 10.0 mi NW 11.5 mph - N/A   Clear
9:35 PM 30.2 °F 20.2 °F 21.2 °F 69% 30.18 in 10.0 mi NW 12.7 mph - N/A   Clear
9:55 PM 30.2 °F 20.8 °F 21.2 °F 69% 30.18 in 10.0 mi NW 11.5 mph - N/A   Clear
10:15 PM 30.2 °F 20.8 °F 21.2 °F 69% 30.18 in 10.0 mi NW 11.5 mph - N/A   Clear
10:35 PM 28.4 °F 19.1 °F 21.2 °F 74% 30.19 in 10.0 mi NW 10.4 mph - N/A   Clear
10:55 PM 28.4 °F 19.1 °F 21.2 °F 74% 30.19 in 10.0 mi NW 10.4 mph - N/A   Clear
11:15 PM 28.4 °F 18.0 °F 23.0 °F 80% 30.19 in 10.0 mi NW 12.7 mph - N/A   Clear
11:35 PM 28.4 °F 19.1 °F 23.0 °F 80% 30.19 in 10.0 mi NW 10.4 mph - N/A   Clear
11:55 PM 28.4 °F 18.0 °F 23.0 °F 80% 30.20 in 10.0 mi NW 12.7 mph - N/A   Clear